Lid_Strength_Index
4 4 4 4 4 4 4 5 5 5 5 5 5 5 5 4 4 4 3 3 2 2 2 1 1 1 3 7 7 3 1 1 2 1 3 4 5 7 9 8 8 9 8 8 8 8 8
4 4 4 4 4 4 4 4 4 5 5 5 5 5 4 4 4 3 3 3 2 2 1 1 1 1 5 9 3 3 3 3 3 3 3 3 4 5 7 8 9 8 8 8 7 8 8
4 4 4 4 4 4 5 5 4 5 5 4 4 4 4 4 3 3 3 2 2 2 1 1 2 3 6 6 2 2 2 4 3 3 5 3 3 5 6 8 6 7 10 9 8 7 9
3 4 4 4 4 4 5 5 5 4 5 4 4 4 4 4 3 3 2 2 2 1 1 1 2 3 7 2 2 3 3 3 3 3 4 3 4 5 5 5 7 9 9 12 9 8 7
3 3 3 3 4 4 5 5 5 4 4 4 4 4 4 4 3 3 2 2 1 2 1 1 3 5 8 3 5 3 2 4 4 4 4 3 5 6 6 8 10 9 13 12 11 7 8
2 2 3 3 3 4 4 4 4 5 4 4 4 4 4 4 3 3 3 2 2 2 2 2 4 7 6 6 4 3 2 3 5 5 6 7 6 8 8 9 14 12 12 11 11 9 8
2 2 2 3 3 4 4 4 4 4 4 4 4 4 4 4 3 3 3 4 5 6 5 8 7 7 6 4 3 4 3 5 5 7 10 9 10 11 10 9 9 10 11 12 10 8 9
2 2 2 2 3 3 4 4 5 4 4 4 4 4 4 4 3 3 4 4 5 4 9 6 6 6 5 5 7 6 3 7 8 10 9 10 12 9 8 9 10 10 11 11 9 8 9
2 2 2 2 3 3 3 4 5 5 4 4 4 4 4 4 3 4 4 4 3 3 8 8 7 7 6 5 7 6 4 6 8 10 10 11 10 8 9 10 11 11 12 11 11 9 8
1 1 2 2 3 3 3 4 5 5 4 4 4 4 4 4 5 4 4 3 3 3 10 9 8 6 6 6 7 4 3 5 8 10 9 10 8 9 10 11 10 13 9 10 10 11 14
1 1 2 2 3 3 3 4 5 5 5 5 4 4 4 5 5 5 4 3 4 4 17 8 7 3 4 6 6 6 3 5 9 9 9 11 10 10 10 10 9 11 8 10 10 11 12
1 1 2 2 2 3 3 4 5 5 5 5 4 4 4 5 5 4 4 4 4 11 18 11 7 8 8 7 7 5 6 4 5 8 8 9 7 8 9 8 8 7 9 10 10 11 16
1 2 2 2 2 3 3 3 4 5 5 5 4 4 5 5 5 4 4 5 11 16 9 11 10 9 9 10 9 8 9 11 12 14 14 10 10 8 7 9 8 8 11 15 17 17 16
2 2 2 2 2 3 3 3 4 5 5 5 5 5 4 4 4 3 5 7 16 12 12 8 9 9 11 10 10 10 10 12 10 11 12 14 15 10 7 9 10 10 12 15 19 17 14
2 2 2 2 3 3 3 3 4 5 6 6 6 4 5 5 3 4 6 13 13 11 9 10 10 13 12 10 11 11 11 11 10 10 14 15 14 8 8 7 8 10 13 10 16 14 14
2 2 2 2 2 2 3 4 4 5 5 6 7 6 6 5 3 4 8 12 10 8 7 9 14 12 15 12 13 12 12 9 10 9 7 10 14 10 9 7 7 9 8 14 14 19 17
2 2 2 2 2 3 3 3 4 5 6 6 7 7 5 5 4 7 11 11 9 7 6 10 11 13 13 13 12 12 12 9 8 9 8 9 12 12 9 11 11 11 12 11 12 15 15
2 2 2 2 2 3 3 3 4 5 6 7 8 11 6 5 10 10 10 10 8 8 6 8 9 10 12 12 13 13 13 10 7 7 11 9 11 14 13 9 8 9 10 11 14 15 14
3 2 2 2 2 3 3 4 5 6 6 8 10 10 6 6 13 12 10 10 9 9 8 8 9 9 9 12 14 12 11 7 7 8 10 9 12 17 16 13 10 12 10 10 11 13 16
3 2 2 2 2 3 3 4 5 6 6 8 10 12 9 9 10 11 12 12 11 8 8 7 8 8 9 12 11 13 12 9 7 7 7 8 11 14 18 15 12 14 11 10 12 15 14
3 2 2 2 2 3 3 4 5 6 6 8 10 12 11 12 11 11 11 11 12 12 8 8 9 9 10 14 13 13 12 11 9 7 8 10 14 12 11 11 12 12 12 12 13 12 15
2 2 2 2 3 3 4 4 5 6 6 8 10 11 9 11 11 11 12 11 12 11 11 10 10 8 10 12 12 13 12 13 12 9 10 9 14 12 13 13 13 14 12 12 12 11 12
3 2 2 2 3 4 4 4 6 5 7 10 9 8 10 12 12 12 12 11 11 10 9 8 9 9 10 9 9 9 9 8 9 10 11 11 12 14 17 13 14 16 13 12 11 10 11
2 2 2 2 3 4 4 4 6 5 6 8 9 9 11 13 12 12 11 10 10 10 11 9 8 9 7 6 7 7 7 8 8 9 8 12 12 13 17 15 20 13 9 9 10 10 9
4 3 3 3 3 4 5 4 5 6 6 7 8 9 10 13 12 11 10 10 9 9 9 9 7 6 5 7 10 12 13 12 11 9 9 9 11 15 18 18 15 12 11 12 12 13 9
3 4 4 3 4 4 4 4 5 5 6 7 7 7 8 12 12 10 11 10 11 11 9 8 6 5 5 8 11 15 17 15 14 12 8 9 10 14 16 19 20 13 10 8 9 16 9
4 4 4 3 5 5 5 4 4 5 5 6 7 7 8 12 10 9 10 11 9 10 11 9 8 7 5 10 13 14 16 12 16 15 14 13 13 15 16 17 14 10 9 8 15 15 9
4 4 4 4 5 6 5 4 4 4 5 6 7 7 8 10 10 9 8 9 9 9 11 8 7 7 9 12 12 12 14 13 14 12 13 15 15 16 14 16 18 8 9 13 10 8 7
4 4 5 6 6 6 5 4 4 4 5 6 8 7 7 9 10 7 8 7 8 7 9 8 7 8 8 10 10 10 13 12 13 16 9 15 12 14 14 14 9 7 8 7 7 7 7